Weather History for KORF - September, 2012

Change the Weather History Date:

Monday, September 10, 2012

  Actual Average Record
Temperature  
Mean Temperature 71 °F 74 °F  
Max Temperature 76 °F 81 °F 98 °F (1900)
Min Temperature 65 °F 67 °F 54 °F (1951)
Degree Days  
Heating Degree Days 0 0  
Month to date heating degree days 0 0  
Since 1 July heating degree days 0 0  
Cooling Degree Days 6 9  
Month to date cooling degree days 136 101  
Year to date cooling degree days 1684 1436  
Growing Degree Days 20 (Base 50)    
Moisture  
Dew Point 54 °F    
Average Humidity 57    
Maximum Humidity 73    
Minimum Humidity 41    
Precipitation  
Precipitation 0.00 in 0.17 in 2.85 in (1893)
Month to date precipitation 0.69 1.70  
Year to date precipitation 33.37 33.64  
Snow  
Snow 0.00 in 0.00 in 0.00 in (2002)
Month to date snowfall 0.0 0.0  
Since 1 July snowfall 0.0 0.0  
Snow Depth 0.00 in    
Sea Level Pressure  
Sea Level Pressure 30.04 in    
Wind  
Wind Speed 9 mph (NNW)    
Max Wind Speed 17 mph    
Max Gust Speed 23 mph    
Visibility 10 miles    
Events      
T = Trace of Precipitation, MM = Missing Value Source: NWS Daily Summary

Daily Weather History Graph

Daily Weather History Graph

Search for Another Location

Airport or City:

Trip Planner

Search our weather history database for the weather conditions in past years. The results will help you decide how hot, cold, wet, or windy it might be!

Date:

Astronomy

Sep. 10, 2012 Rise Set
Actual Time 6:43 AM EDT 7:19 PM EDT
Civil Twilight 6:17 AM EDT 7:45 PM EDT
Nautical Twilight 5:46 AM EDT 8:15 PM EDT
Astronomical Twilight 5:14 AM EDT 8:47 PM EDT
Moon 1:08 AM EDT (9/10) 3:41 PM EDT (9/10)
Length of Visible Light 13h 28m
Length of Day
12h 35m
Waning Crescent, 30% of the Moon is Illuminated
Sep 10
Waning Crescent
Sep 15
New
Sep 22
First Quarter
Sep 29
Full
Oct 8
Last Quarter

Hourly Weather History & Observations

Time (EDT) Temp. Dew Point Humidity Pressure Visibility Wind Dir Wind Speed Gust Speed Precip Events Conditions
12:51 AM 71.1 °F 54.0 °F 55% 29.93 in 10.0 mi NW 6.9 mph - N/A   Clear
1:51 AM 70.0 °F 55.9 °F 61% 29.93 in 10.0 mi NW 5.8 mph - N/A   Clear
2:51 AM 70.0 °F 55.0 °F 59% 29.93 in 10.0 mi NNW 9.2 mph - N/A   Clear
3:51 AM 68.0 °F 55.0 °F 63% 29.94 in 10.0 mi NNW 9.2 mph 16.1 mph N/A   Clear
4:51 AM 68.0 °F 55.9 °F 65% 29.94 in 10.0 mi NNW 10.4 mph 16.1 mph N/A   Clear
5:51 AM 66.9 °F 55.9 °F 68% 29.96 in 10.0 mi NW 5.8 mph - N/A   Clear
6:51 AM 66.0 °F 57.0 °F 73% 29.99 in 10.0 mi NW 4.6 mph - N/A   Clear
7:51 AM 66.0 °F 55.9 °F 70% 30.01 in 10.0 mi NNW 4.6 mph - N/A   Clear
8:51 AM 69.1 °F 57.9 °F 68% 30.02 in 10.0 mi NNW 6.9 mph - N/A   Clear
9:51 AM 71.1 °F 60.1 °F 68% 30.04 in 10.0 mi NNW 11.5 mph 18.4 mph N/A   Clear
10:51 AM 73.0 °F 60.1 °F 64% 30.06 in 10.0 mi North 11.5 mph 20.7 mph N/A   Partly Cloudy
11:51 AM 73.0 °F 57.9 °F 59% 30.06 in 10.0 mi North 13.8 mph 21.9 mph N/A   Scattered Clouds
12:51 PM 73.0 °F 55.9 °F 55% 30.06 in 10.0 mi NNW 10.4 mph 19.6 mph N/A   Mostly Cloudy
1:51 PM 75.0 °F 55.0 °F 50% 30.05 in 10.0 mi North 11.5 mph 21.9 mph N/A   Scattered Clouds
2:51 PM 75.0 °F 53.1 °F 46% 30.04 in 10.0 mi North 15.0 mph - N/A   Clear
3:51 PM 75.0 °F 50.0 °F 41% 30.04 in 10.0 mi North 13.8 mph 18.4 mph N/A   Clear
4:51 PM 73.9 °F 51.1 °F 45% 30.04 in 10.0 mi North 11.5 mph 17.3 mph N/A   Clear
5:51 PM 73.0 °F 51.1 °F 46% 30.06 in 10.0 mi NNW 8.1 mph - N/A   Clear
6:51 PM 73.0 °F 48.9 °F 42% 30.08 in 10.0 mi NNW 5.8 mph - N/A   Scattered Clouds
7:51 PM 71.1 °F 48.0 °F 44% 30.09 in 10.0 mi NNW 4.6 mph - N/A   Clear
8:51 PM 71.1 °F 48.0 °F 44% 30.11 in 10.0 mi NW 5.8 mph - N/A   Partly Cloudy
9:51 PM 70.0 °F 48.9 °F 47% 30.13 in 10.0 mi NW 5.8 mph - N/A   Clear
10:51 PM 70.0 °F 50.0 °F 49% 30.14 in 10.0 mi NW 4.6 mph - N/A   Clear
11:51 PM 71.1 °F 48.9 °F 45% 30.15 in 10.0 mi NNW 6.9 mph - N/A   Clear